EW2470 Weather Reports


Display with metric or nautical units.
time (UTC)temp
F
wind
direction
speed
MPH
gust
MPH
rain 1hr
in
rain 24hr
in
rain mn
in
humidity
%
barometer
mb
20260506112037 65 225 1.0 3.0 0.00 0.00 0.00 83 1013.2
20260506111016 65 203 1.0 3.0 0.00 0.00 0.00 83 1012.9
20260506110016 64 225 1.0 5.0 0.00 0.00 0.00 83 1012.8
20260506105016 64 203 2.0 5.0 0.00 0.00 0.00 83 1012.8
20260506104016 64 225 1.0 3.0 0.00 0.00 0.00 83 1012.6
20260506103016 64 180 1.0 4.0 0.00 0.00 0.00 83 1012.5
20260506102016 64 203 1.0 2.0 0.00 0.00 0.00 82 1012.4
20260506101016 64 225 1.0 3.0 0.00 0.00 0.00 82 1012.4
20260506100016 64 225 1.0 4.0 0.00 0.00 0.00 81 1012.4
20260506095017 64 180 1.0 4.0 0.00 0.00 0.00 81 1012.4
20260506094036 64 180 2.0 5.0 0.00 0.00 0.00 81 1012.6
20260506093018 64 180 1.0 3.0 0.00 0.00 0.00 81 1012.5
20260506092017 64 180 1.0 2.0 0.00 0.00 0.00 80 1012.3
20260506091016 64 0.0 2.0 0.00 0.00 0.00 79 1012.3
20260506090058 64 0.0 2.0 0.00 0.00 0.00 79 1012.3
20260506085017 64 0.0 2.0 0.00 0.00 0.00 78 1012.5
20260506084036 64 0.0 2.0 0.00 0.00 0.00 78 1012.7
20260506083016 64 0.0 2.0 0.00 0.00 0.00 78 1012.8
20260506082016 64 0.0 2.0 0.00 0.00 0.00 77 1012.9
20260506081016 64 0.0 2.0 0.00 0.00 0.00 77 1012.9
20260506073015 65 0.0 2.0 0.00 0.00 0.00 74 1013.0
20260506072016 65 248 1.0 3.0 0.00 0.00 0.00 74 1013.0
20260506071015 65 225 1.0 3.0 0.00 0.00 0.00 73 1012.9
20260506062018 65 225 2.0 6.0 0.00 0.00 0.00 70 1012.7
20260506061016 64 203 2.0 5.0 0.00 0.00 0.00 71 1012.7
20260506051018 61 0.0 2.0 0.00 0.00 0.00 73 1012.9
20260506045038 61 0.0 2.0 0.00 0.00 0.00 73 1012.6
20260506044017 61 0.0 2.0 0.00 0.00 0.00 72 1012.8
20260506043016 61 0.0 0.0 0.00 0.00 0.00 72 1013.0
20260506042017 61 0.0 2.0 0.00 0.00 0.00 70 1012.9
20260506041100 62 0.0 0.0 0.00 0.00 0.00 71 1013.1
20260506040017 62 0.0 2.0 0.00 0.00 0.00 71 1013.1
20260506035017 62 0.0 0.0 0.00 0.00 0.00 70 1012.8
20260506034017 62 0.0 2.0 0.00 0.00 0.00 69 1012.9
20260506033017 63 0.0 0.0 0.00 0.00 0.00 67 1012.8
20260506032037 63 0.0 0.0 0.00 0.00 0.00 66 1012.7
20260506031019 64 0.0 0.0 0.00 0.00 0.00 64 1012.9
20260506030017 64 0.0 1.0 0.00 0.00 0.00 62 1012.9
20260506025018 64 0.0 0.0 0.00 0.00 0.00 61 1013.2
20260506024037 64 0.0 1.0 0.00 0.00 0.00 61 1013.3
20260506023019 64 0.0 2.0 0.00 0.00 0.00 60 1013.2
20260506022017 65 0.0 1.0 0.00 0.00 0.00 61 1013.0
20260506021037 65 0.0 2.0 0.00 0.00 0.00 59 1013.0
20260506020017 66 0.0 2.0 0.00 0.00 0.00 60 1012.9
20260506015017 66 0.0 1.0 0.00 0.00 0.00 59 1012.9
20260506014017 67 0.0 2.0 0.00 0.00 0.00 59 1012.9
20260506013018 68 0.0 2.0 0.00 0.00 0.00 57 1012.6
20260506012037 69 0.0 2.0 0.00 0.00 0.00 52 1012.5
20260506011019 70 0.0 1.0 0.00 0.00 0.00 50 1012.6
20260506010017 71 0.0 2.0 0.00 0.00 0.00 49 1012.7
20260506005017 72 0.0 0.0 0.00 0.00 0.00 47 1012.6
20260506004018 73 0.0 0.0 0.00 0.00 0.00 44 1012.5
20260506003017 74 0.0 2.0 0.00 0.00 0.00 42 1012.4
20260506002017 75 0.0 2.0 0.00 0.00 0.00 41 1012.5
20260506001017 76 225 1.0 4.0 0.00 0.00 0.00 41 1012.4
20260506000017 76 203 2.0 4.0 0.00 0.00 0.00 41 1012.4
20260505235038 76 203 1.0 4.0 0.00 0.00 0.00 42 1012.2
20260505234018 77 203 2.0 6.0 0.00 0.00 0.00 43 1012.0
20260505233058 78 225 3.0 7.0 0.00 0.00 0.00 42 1012.0
20260505232018 78 225 3.0 9.0 0.00 0.00 0.00 42 1011.9
20260505231018 78 203 4.0 9.0 0.00 0.00 0.00 41 1011.8
20260505230037 79 225 4.0 8.0 0.00 0.00 0.00 41 1011.8
20260505225018 79 225 2.0 7.0 0.00 0.00 0.00 42 1011.8
20260505224017 79 180 3.0 9.0 0.00 0.00 0.00 40 1011.8
20260505223018 80 180 5.0 10.0 0.00 0.00 0.00 39 1011.8
20260505222016 81 225 4.0 9.0 0.00 0.00 0.00 37 1011.9
20260505221017 81 158 4.0 12.0 0.00 0.00 0.00 38 1011.9
20260505220017 82 248 4.0 11.0 0.00 0.00 0.00 37 1011.9
20260505215016 82 180 3.0 9.0 0.00 0.00 0.00 37 1011.9
20260505214017 83 180 4.0 9.0 0.00 0.00 0.00 37 1012.2
20260505213017 83 180 3.0 6.0 0.00 0.00 0.00 39 1012.3
20260505212018 83 158 4.0 10.0 0.00 0.00 0.00 38 1012.4
20260505211017 83 225 4.0 9.0 0.00 0.00 0.00 37 1012.3
20260505210017 83 180 3.0 8.0 0.00 0.00 0.00 37 1012.3
20260505205017 84 225 4.0 8.0 0.00 0.00 0.00 36 1012.4
20260505204037 83 225 2.0 5.0 0.00 0.00 0.00 40 1012.4
20260505203036 83 225 5.0 11.0 0.00 0.00 0.00 37 1012.6
20260505202059 83 180 6.0 11.0 0.00 0.00 0.00 37 1012.7
20260505201016 83 180 5.0 11.0 0.00 0.00 0.00 39 1012.8
20260505200016 83 158 3.0 11.0 0.00 0.00 0.00 38 1012.8
20260505195119 83 180 3.0 8.0 0.00 0.00 0.00 38 1013.0
20260505194017 83 135 3.0 7.0 0.00 0.00 0.00 38 1013.1
20260505193017 82 158 4.0 10.0 0.00 0.00 0.00 39 1013.4
20260505192018 82 180 4.0 8.0 0.00 0.00 0.00 38 1013.3
20260505191017 82 158 2.0 6.0 0.00 0.00 0.00 42 1013.4
20260505190037 81 180 5.0 13.0 0.00 0.00 0.00 42 1013.6
20260505185016 81 113 4.0 9.0 0.00 0.00 0.00 41 1013.7
20260505184016 81 180 5.0 12.0 0.00 0.00 0.00 42 1014.0
20260505183016 81 180 4.0 10.0 0.00 0.00 0.00 41 1014.2
20260505182017 81 180 4.0 9.0 0.00 0.00 0.00 44 1014.4
20260505181016 82 203 4.0 7.0 0.00 0.00 0.00 41 1014.4
20260505180016 81 225 4.0 8.0 0.00 0.00 0.00 39 1014.5
20260505175017 80 113 3.0 9.0 0.00 0.00 0.00 42 1014.5
20260505174016 80 225 4.0 11.0 0.00 0.00 0.00 46 1014.6
20260505173016 80 248 4.0 11.0 0.00 0.00 0.00 48 1014.7
20260505172016 79 113 3.0 7.0 0.00 0.00 0.00 44 1014.6
20260505171016 80 158 4.0 10.0 0.00 0.00 0.00 47 1014.8
20260505170016 79 180 5.0 10.0 0.00 0.00 0.00 48 1014.8
20260505165016 78 180 4.0 14.0 0.00 0.00 0.00 47 1014.9
20260505164017 77 135 3.0 8.0 0.00 0.00 0.00 50 1015.0
20260505163016 77 180 4.0 8.0 0.00 0.00 0.00 49 1015.1
20260505162016 77 113 3.0 9.0 0.00 0.00 0.00 49 1015.3
20260505161038 77 203 2.0 4.0 0.00 0.00 0.00 52 1015.5
20260505153016 75 180 2.0 6.0 0.00 0.00 0.00 51 1015.7
20260505152016 74 23 2.0 5.0 0.00 0.00 0.00 54 1015.9
20260505151016 74 113 3.0 7.0 0.00 0.00 0.00 52 1015.6
20260505125016 60 90 1.0 2.0 0.00 0.00 0.00 82 1014.6
20260505124017 58 68 1.0 3.0 0.00 0.00 0.00 88 1014.8
20260505123016 56 0.0 2.0 0.00 0.00 0.00 91 1014.9
20260505122036 55 0.0 1.0 0.00 0.00 0.00 92 1015.0
20260505121016 54 0.0 2.0 0.00 0.00 0.00 93 1014.7
20260505120016 54 180 1.0 2.0 0.00 0.00 0.00 93 1014.5
20260505115018 53 180 1.0 3.0 0.00 0.00 0.00 93 1014.5
20260505114016 52 0.0 2.0 0.00 0.00 0.00 93 1014.3
20260505113016 50 0.0 2.0 0.00 0.00 0.00 92 1014.2